Weather History for Cut Bank, MT

Change the Weather History Date:

Sunday, April 20, 2014

  Actual Average Record
Temperature  
Mean Temperature 46 °F 42 °F  
Max Temperature 57 °F 55 °F 81 °F (1980)
Min Temperature 35 °F 30 °F -5 °F (1927)
Degree Days  
Heating Degree Days 19 23  
Month to date heating degree days 489 509  
Since 1 July heating degree days 7917 7607  
Cooling Degree Days 0 0  
Month to date cooling degree days 0 0  
Year to date cooling degree days 0 0  
Moisture  
Dew Point 25 °F    
Average Humidity 50    
Maximum Humidity 75    
Minimum Humidity 24    
Precipitation  
Precipitation 0.00 in 0.02 in 0.50 in (1920)
Month to date precipitation 0.50 0.45  
Year to date precipitation 2.42 1.36  
Snow  
Snow 0.00 in - - ()
Snow Depth 0.00 in    
Sea Level Pressure  
Sea Level Pressure 30.04 in    
Wind  
Wind Speed 23 mph (WSW)    
Max Wind Speed 40 mph    
Max Gust Speed 49 mph    
Visibility 10 miles    
Events      
T = Trace of Precipitation, MM = Missing Value Source: NWS Daily Summary

Daily Weather History Graph

Daily Weather History Graph

Search for Another Location

Airport:

Trip Planner

Search our weather history database for the weather conditions in past years. The results will help you decide how hot, cold, wet, or windy it might be!

Date:

Astronomy

Apr. 20, 2014 Rise Set
Actual Time 6:29 AM MDT 8:28 PM MDT
Civil Twilight 5:55 AM MDT 9:02 PM MDT
Nautical Twilight 5:14 AM MDT 9:44 PM MDT
Astronomical Twilight 4:27 AM MDT 10:30 PM MDT
Moon 1:21 AM MDT (4/20) 10:44 AM MDT (4/20)
Length of Visible Light 15h 06m
Length of Day
13h 59m
Waning Gibbous, 68% of the Moon is Illuminated
Apr 20
Waning Gibbous
Apr 22
Last Quarter
Apr 29
New
May 6
First Quarter
May 14
Full

Hourly Weather History & Observations

Time (MDT) Temp. Windchill Dew Point Humidity Pressure Visibility Wind Dir Wind Speed Gust Speed Precip Events Conditions
12:56 AM 43.0 °F 31.7 °F 33.1 °F 68% 29.86 in 10.0 mi West 35.7 mph 43.7 mph N/A   Clear
1:56 AM 42.1 °F 32.1 °F 30.0 °F 62% 29.87 in 10.0 mi WSW 25.3 mph 34.5 mph N/A   Overcast
2:56 AM 36.0 °F 26.7 °F 28.9 °F 76% 29.89 in 10.0 mi SW 15.0 mph - N/A   Clear
3:56 AM 39.0 °F 28.3 °F 30.9 °F 73% 29.89 in 10.0 mi WSW 24.2 mph - N/A   Clear
4:56 AM 39.0 °F 27.2 °F 30.9 °F 73% 29.91 in 10.0 mi WSW 29.9 mph 40.3 mph N/A   Clear
5:56 AM 39.0 °F 26.6 °F 30.0 °F 70% 29.88 in 10.0 mi WSW 33.4 mph 46.0 mph N/A   Clear
6:56 AM 37.0 °F 26.4 °F 28.0 °F 70% 29.94 in 10.0 mi WSW 20.7 mph - N/A   Clear
7:56 AM 41.0 °F 30.0 °F 27.0 °F 57% 29.96 in 10.0 mi WSW 28.8 mph 35.7 mph N/A   Clear
8:56 AM 45.0 °F 35.2 °F 26.1 °F 48% 29.99 in 10.0 mi West 29.9 mph 46.0 mph N/A   Clear
9:56 AM 48.0 °F - 27.0 °F 44% 30.02 in 10.0 mi West 34.5 mph 41.4 mph N/A   Clear
10:56 AM 50.0 °F - 24.8 °F 37% 30.02 in 10.0 mi WSW 36.8 mph 43.7 mph N/A   Clear
11:56 AM 52.0 °F - 24.1 °F 34% 30.05 in 10.0 mi West 28.8 mph 41.4 mph N/A   Clear
12:56 PM 55.0 °F - 23.0 °F 29% 30.05 in 10.0 mi West 31.1 mph 36.8 mph N/A   Clear
1:56 PM 55.0 °F - 21.0 °F 27% 30.07 in 10.0 mi West 31.1 mph 35.7 mph N/A   Clear
2:56 PM 55.0 °F - 19.9 °F 25% 30.09 in 10.0 mi West 23.0 mph 32.2 mph N/A   Clear
3:56 PM 55.0 °F - 19.9 °F 25% 30.10 in 10.0 mi West 20.7 mph 35.7 mph N/A   Clear
4:56 PM 55.0 °F - 19.9 °F 25% 30.12 in 10.0 mi WSW 21.9 mph 28.8 mph N/A   Clear
5:56 PM 53.1 °F - 19.9 °F 27% 30.14 in 10.0 mi WSW 20.7 mph 33.4 mph N/A   Clear
6:56 PM 51.1 °F - 19.9 °F 29% 30.15 in 10.0 mi West 21.9 mph - N/A   Clear
7:56 PM 48.0 °F - 21.9 °F 36% 30.16 in 10.0 mi West 16.1 mph - N/A   Clear
8:56 PM 44.1 °F 37.1 °F 23.0 °F 43% 30.18 in 10.0 mi West 15.0 mph - N/A   Clear
9:56 PM 42.1 °F 36.1 °F 24.1 °F 49% 30.19 in 10.0 mi WSW 10.4 mph - N/A   Clear
10:56 PM 43.0 °F 36.8 °F 23.0 °F 45% 30.17 in 10.0 mi WSW 11.5 mph - N/A   Clear
11:56 PM 41.0 °F 33.9 °F 21.9 °F 47% 30.17 in 10.0 mi West 12.7 mph - N/A   Clear